Weather in Asbest

Russia / Sverdlovsk Oblast     57°00′18″N   61°27′29″E
temp.,
°C
wind,
m/s
gust,
m/s
humid.,
%
clouds,
%
prec.,
mm/h
press.,
hPa
HPBL,
m
4 march, thu
thu423:00−4sw3895100 0.1 998291
02:00−7sw259493 0.0 997123
05:00−9sw359496 0.0 99696
08:00−9sw3795100 0.0 995172
11:00−5wsw4792100 0.5 996611
14:00−4w5880100 0.3 9961085
17:00−5w488199 0.4 9961003
20:00−9sw3109056 0.0 997227
5 march, fri
fri523:00−11ssw3109345 0.0 997215
02:00−7s51292100 0.3 993652
05:00−6ssw51294100 1.4 991678
08:00−4wsw61286100 0.3 991996
11:00−3wsw6138295 0.4 993944
14:00−3wsw71280100 0.0 9951016
17:00−4w51080100 0.1 9971044
20:00−8wsw4138867 0.0 999466
6 march, sat
sat623:00−10w4138933 0.0 1002446
02:00−12w513890 0.0 1004495
05:00−14w5128810 0.0 1007418
08:00−15wsw411920 0.0 1008315
11:00−9wsw511840 0.0 1008694
14:00−7w5107791 0.0 10081365
17:00−7wsw598295 0.2 10081295
20:00−10wsw269396 0.1 1008145
7 march, sun
sun723:00−13wnw229698 0.1 100928
02:00−17nnw119752 0.0 100820
05:00−19nw119725 0.0 100820
08:00−20wnw129620 0.0 100820
11:00−13w238757 0.0 1008316
14:00−10w348099 0.0 1008894
17:00−11w358299 0.1 1008895
20:00−16w2393100 0.1 101068
8 march, mon
mon823:00−19w339576 0.1 101282
02:00−21wsw23960 0.0 101268
05:00−22sw23950 0.0 101241
08:00−22s369562 0.0 1010138
11:00−15sse5108880 0.0 1008376
14:00−12s5991100 0.3 1005538
17:00−9s4989100 0.4 1004607
20:00−8wsw61380100 0.3 1004931